contact:dominique.lefevre@mio.osupytheas.fr, maurice.libes@osupytheas.fr, didier.mallarino@osupytheas.fr
Project:EMSO http://www.emso-fr.org/EMSO-France
Depth: 2436.0 m
Title:EMSO Ligure Ouest : Data MII capteur AQUADOPP
Date,Latitude,Longitude,X_East,Y_North,Z_Up,Amplitude_X,Amplitude_Y,Amplitude_Z,Batterie,SoundSpeed,Heading,Pitch,Roll,Pressure,TIS,Speed,Direction
, degrees North, degrees East, m.s-1, m.s-1,m.s-1, 1, 1, 1, Volt, m.s-1, degree, degree, degree, dbar, degree_C, m.s-1, degree
2020-05-10T00:04:03,42.805,6.029,0.003,0.009,-0.018,105.0,107.0,102.0,13.4,1505.3,326.8,-0.8,1.8,2470.371,13.32,0.009,18.4
2020-05-10T00:07:03,42.805,6.029,-0.025,0.023,-0.023,104.0,108.0,102.0,13.4,1505.3,327.1,-0.7,1.8,2470.367,13.33,0.033,312.6
2020-05-10T00:10:03,42.805,6.029,-0.005,0.028,-0.008,105.0,107.0,102.0,13.4,1505.3,326.4,-0.7,1.8,2470.3,13.33,0.028,349.9
2020-05-10T00:13:03,42.805,6.029,-0.003,0.026,0.013,103.0,107.0,102.0,13.4,1505.3,324.6,-0.7,1.8,2470.375,13.33,0.026,353.4
2020-05-10T00:16:03,42.805,6.029,-0.013,0.021,-0.024,106.0,108.0,103.0,13.4,1505.3,325.1,-0.7,1.8,2470.338,13.33,0.024,328.2
2020-05-10T00:19:03,42.805,6.029,0.016,0.038,-0.028,105.0,108.0,102.0,13.4,1505.4,325.0,-0.7,1.8,2470.402,13.34,0.041,22.8
2020-05-10T00:22:03,42.805,6.029,0.008,0.022,-0.041,106.0,106.0,103.0,13.3,1505.4,326.4,-0.7,1.8,2470.339,13.34,0.023,20.0
2020-05-10T00:25:03,42.805,6.029,0.018,0.015,-0.009,105.0,109.0,101.0,13.3,1505.4,324.0,-0.7,1.8,2470.322,13.34,0.023,50.2
2020-05-10T00:28:03,42.805,6.029,-0.029,0.023,-0.017,105.0,106.0,101.0,13.3,1505.4,325.1,-0.7,1.9,2470.362,13.34,0.037,308.4
2020-05-10T00:31:03,42.805,6.029,-0.008,0.015,0.004,104.0,107.0,102.0,13.4,1505.4,327.0,-0.7,1.8,2470.353,13.34,0.017,331.9
2020-05-10T00:34:03,42.805,6.029,0.015,0.021,-0.029,106.0,107.0,102.0,13.3,1505.4,323.2,-0.7,1.8,2470.344,13.34,0.025,35.5
2020-05-10T00:37:03,42.805,6.029,-0.008,0.001,0.002,103.0,107.0,102.0,13.4,1505.4,323.3,-0.7,1.8,2470.333,13.34,0.008,277.1
2020-05-10T00:40:03,42.805,6.029,-0.003,0.028,-0.029,104.0,107.0,102.0,13.4,1505.4,324.7,-0.7,1.8,2470.302,13.34,0.028,353.9
2020-05-10T00:43:03,42.805,6.029,-0.001,0.042,-0.007,104.0,107.0,101.0,13.4,1505.4,324.8,-0.7,1.8,2470.31,13.34,0.042,358.6
2020-05-10T00:46:03,42.805,6.029,-0.003,0.044,-0.029,105.0,108.0,100.0,13.4,1505.4,325.2,-0.7,1.9,2470.285,13.34,0.044,356.1
2020-05-10T00:49:03,42.805,6.029,0.019,0.022,-0.011,105.0,108.0,100.0,13.4,1505.4,324.0,-0.7,1.9,2470.316,13.34,0.029,40.8
2020-05-10T00:52:03,42.805,6.029,-0.035,0.047,-0.064,104.0,107.0,102.0,13.3,1505.4,325.7,-0.7,1.8,2470.292,13.34,0.058,323.3
2020-05-10T00:55:03,42.805,6.029,0.009,0.019,0.0,104.0,107.0,102.0,13.3,1505.4,326.6,-0.7,1.8,2470.261,13.34,0.021,25.3
2020-05-10T00:58:03,42.805,6.029,-0.004,0.025,-0.04,105.0,108.0,101.0,13.4,1505.4,325.3,-0.7,1.8,2470.305,13.34,0.025,350.9
2020-05-10T01:04:03,42.805,6.029,-0.021,0.02,-0.025,105.0,108.0,104.0,13.4,1505.3,324.0,-0.7,1.8,2470.299,13.32,0.028,313.6
2020-05-10T01:07:03,42.805,6.029,-0.003,0.022,0.001,105.0,108.0,102.0,13.4,1505.3,328.3,-0.7,1.8,2470.341,13.33,0.022,352.2
2020-05-10T01:10:03,42.805,6.029,-0.007,0.029,-0.023,102.0,106.0,102.0,13.4,1505.3,326.8,-0.7,1.8,2470.351,13.33,0.029,346.4
2020-05-10T01:13:03,42.805,6.029,0.0,0.019,-0.055,106.0,106.0,102.0,13.4,1505.4,326.9,-0.7,1.8,2470.302,13.34,0.019,0.0
2020-05-10T01:16:03,42.805,6.029,-0.025,0.032,-0.009,104.0,107.0,102.0,13.3,1505.4,326.9,-0.7,1.8,2470.293,13.34,0.04,322.0
2020-05-10T01:19:03,42.805,6.029,-0.008,0.029,-0.041,104.0,107.0,102.0,13.4,1505.4,326.3,-0.7,1.8,2470.295,13.34,0.03,344.6
2020-05-10T01:22:03,42.805,6.029,-0.003,0.032,-0.045,105.0,107.0,102.0,13.4,1505.4,324.9,-0.7,1.8,2470.288,13.34,0.032,354.6
2020-05-10T01:25:03,42.805,6.029,-0.001,0.026,-0.047,105.0,107.0,102.0,13.4,1505.4,323.0,-0.7,1.9,2470.291,13.34,0.026,357.8
2020-05-10T01:28:03,42.805,6.029,0.002,0.025,-0.016,105.0,107.0,102.0,13.4,1505.4,327.8,-0.7,1.8,2470.321,13.34,0.025,4.6
2020-05-10T01:31:03,42.805,6.029,0.014,0.01,-0.03,104.0,106.0,102.0,13.4,1505.4,326.9,-0.7,1.9,2470.281,13.34,0.017,54.5
2020-05-10T01:34:03,42.805,6.029,-0.019,0.026,-0.003,102.0,108.0,103.0,13.3,1505.4,328.0,-0.7,1.9,2470.294,13.34,0.032,323.8
2020-05-10T01:37:03,42.805,6.029,-0.003,0.008,-0.023,105.0,108.0,101.0,13.4,1505.4,326.7,-0.7,1.8,2470.322,13.34,0.008,339.4
2020-05-10T01:40:03,42.805,6.029,0.0,0.037,-0.006,105.0,106.0,101.0,13.4,1505.4,323.8,-0.7,1.8,2470.288,13.34,0.037,0.0
2020-05-10T01:43:03,42.805,6.029,-0.006,0.017,-0.016,104.0,106.0,103.0,13.4,1505.4,327.1,-0.7,1.8,2470.249,13.34,0.018,340.6
2020-05-10T01:46:03,42.805,6.029,0.001,0.034,-0.023,106.0,106.0,102.0,13.4,1505.4,327.6,-0.7,1.8,2470.264,13.34,0.034,1.7
2020-05-10T01:49:03,42.805,6.029,-0.001,0.012,-0.018,105.0,107.0,101.0,13.4,1505.4,326.7,-0.7,1.8,2470.283,13.34,0.012,355.2
2020-05-10T01:52:03,42.805,6.029,-0.011,0.019,-0.031,104.0,107.0,103.0,13.3,1505.4,327.2,-0.7,1.8,2470.292,13.34,0.021,329.9
2020-05-10T01:55:03,42.805,6.029,0.0,0.023,-0.02,105.0,108.0,102.0,13.3,1505.4,328.3,-0.7,1.8,2470.302,13.34,0.023,0.0
2020-05-10T01:58:03,42.805,6.029,0.0,0.005,-0.021,106.0,107.0,101.0,13.4,1505.4,327.1,-0.7,1.9,2470.209,13.34,0.005,0.0
2020-05-10T02:04:03,42.805,6.029,0.001,0.021,-0.021,104.0,106.0,102.0,13.4,1505.3,325.7,-0.7,1.8,2470.271,13.32,0.021,2.7
2020-05-10T02:07:03,42.805,6.029,-0.003,0.025,-0.026,104.0,107.0,102.0,13.3,1505.3,327.3,-0.7,1.8,2470.309,13.33,0.025,353.2
2020-05-10T02:10:03,42.805,6.029,-0.019,0.021,-0.042,105.0,106.0,102.0,13.4,1505.3,325.3,-0.7,1.8,2470.271,13.33,0.028,317.9
2020-05-10T02:13:03,42.805,6.029,0.006,0.027,0.018,104.0,108.0,103.0,13.4,1505.3,328.2,-0.7,1.8,2470.273,13.33,0.027,12.5
2020-05-10T02:16:03,42.805,6.029,0.026,0.046,-0.001,104.0,106.0,102.0,13.4,1505.4,322.8,-0.7,1.8,2470.28,13.34,0.052,29.5
2020-05-10T02:19:03,42.805,6.029,-0.007,0.005,-0.051,104.0,108.0,102.0,13.3,1505.4,323.8,-0.7,1.8,2470.277,13.34,0.008,305.5
2020-05-10T02:22:03,42.805,6.029,-0.007,0.014,-0.018,105.0,107.0,102.0,13.3,1505.4,326.2,-0.7,1.8,2470.282,13.34,0.015,333.4
2020-05-10T02:25:03,42.805,6.029,0.025,0.025,-0.003,103.0,106.0,102.0,13.4,1505.4,325.2,-0.7,1.8,2470.223,13.34,0.035,45.0
2020-05-10T02:28:03,42.805,6.029,0.009,0.024,-0.018,104.0,108.0,101.0,13.4,1505.4,324.8,-0.7,1.8,2470.216,13.34,0.025,20.6
2020-05-10T02:31:03,42.805,6.029,0.013,0.004,0.01,104.0,108.0,101.0,13.4,1505.4,325.6,-0.7,1.9,2470.273,13.34,0.013,72.9
2020-05-10T02:34:03,42.805,6.029,0.039,0.01,0.013,105.0,107.0,102.0,13.4,1505.4,327.8,-0.7,1.9,2470.211,13.34,0.04,75.6
2020-05-10T02:37:03,42.805,6.029,-0.019,0.027,-0.002,103.0,107.0,102.0,13.4,1505.4,324.6,-0.7,1.8,2470.256,13.34,0.033,324.9
2020-05-10T02:40:03,42.805,6.029,-0.009,0.02,-0.025,106.0,106.0,103.0,13.3,1505.4,325.7,-0.7,1.8,2470.254,13.34,0.021,335.8
2020-05-10T02:43:03,42.805,6.029,-0.007,0.014,-0.004,104.0,106.0,102.0,13.4,1505.4,323.9,-0.7,1.8,2470.255,13.34,0.015,333.4
2020-05-10T02:46:03,42.805,6.029,0.001,0.019,-0.032,104.0,107.0,102.0,13.4,1505.4,325.3,-0.7,1.9,2470.253,13.34,0.019,3.0
2020-05-10T02:49:03,42.805,6.029,-0.002,0.007,-0.039,104.0,106.0,103.0,13.3,1505.4,323.5,-0.7,1.8,2470.237,13.34,0.007,344.1
2020-05-10T02:52:02,42.805,6.029,0.011,0.027,0.029,107.0,108.0,103.0,13.4,1505.4,326.5,-0.7,1.8,2470.243,13.34,0.029,22.2
2020-05-10T02:55:03,42.805,6.029,0.012,0.025,-0.011,105.0,107.0,103.0,13.3,1505.4,324.6,-0.7,1.8,2470.232,13.34,0.027,25.6
2020-05-10T02:58:03,42.805,6.029,0.025,0.021,0.015,105.0,107.0,102.0,13.3,1505.4,327.2,-0.7,1.8,2470.224,13.34,0.032,50.0
2020-05-10T03:04:03,42.805,6.029,0.005,0.024,-0.032,103.0,108.0,103.0,13.4,1505.3,325.4,-0.7,1.8,2470.221,13.33,0.024,11.8
2020-05-10T03:07:03,42.805,6.029,0.033,0.013,-0.009,105.0,107.0,103.0,13.4,1505.3,326.3,-0.7,1.8,2470.227,13.33,0.035,68.5
2020-05-10T03:10:03,42.805,6.029,-0.006,0.023,-0.042,102.0,106.0,102.0,13.4,1505.3,327.4,-0.7,1.8,2470.234,13.33,0.023,345.4
2020-05-10T03:13:03,42.805,6.029,0.038,0.017,0.008,101.0,108.0,102.0,13.4,1505.4,325.5,-0.7,1.8,2470.267,13.34,0.041,65.9
2020-05-10T03:16:03,42.805,6.029,0.015,0.044,0.003,105.0,107.0,102.0,13.4,1505.4,324.4,-0.7,1.8,2470.289,13.34,0.046,18.8
2020-05-10T03:19:03,42.805,6.029,0.03,0.029,0.013,103.0,107.0,102.0,13.4,1505.4,323.4,-0.7,1.8,2470.221,13.34,0.041,46.0
2020-05-10T03:22:03,42.805,6.029,0.008,0.031,-0.002,103.0,107.0,101.0,13.3,1505.4,324.8,-0.7,1.8,2470.263,13.34,0.032,14.5
2020-05-10T03:25:03,42.805,6.029,0.018,0.001,-0.014,104.0,106.0,102.0,13.4,1505.4,324.8,-0.7,1.8,2470.25,13.34,0.018,86.8
2020-05-10T03:28:03,42.805,6.029,0.001,0.005,0.0,103.0,108.0,103.0,13.4,1505.4,324.8,-0.7,1.8,2470.215,13.34,0.005,11.3
2020-05-10T03:31:03,42.805,6.029,-0.018,0.035,-0.038,104.0,105.0,102.0,13.3,1505.4,328.3,-0.7,1.8,2470.251,13.34,0.039,332.8
2020-05-10T03:34:03,42.805,6.029,-0.02,0.03,-0.015,105.0,105.0,102.0,13.4,1505.4,325.6,-0.7,1.9,2470.241,13.34,0.036,326.3
2020-05-10T03:37:03,42.805,6.029,-0.006,0.035,-0.012,104.0,107.0,102.0,13.4,1505.4,327.2,-0.7,1.8,2470.225,13.34,0.035,350.3
2020-05-10T03:40:03,42.805,6.029,0.01,0.006,-0.029,101.0,106.0,102.0,13.4,1505.4,325.5,-0.7,1.8,2470.21,13.34,0.011,59.0
2020-05-10T03:43:03,42.805,6.029,-0.004,0.0,-0.025,104.0,106.0,101.0,13.4,1505.4,325.8,-0.7,1.8,2470.221,13.34,0.004,270.0
2020-05-10T03:46:03,42.805,6.029,-0.006,0.02,-0.048,103.0,107.0,102.0,13.4,1505.4,325.3,-0.7,1.8,2470.188,13.34,0.02,343.3
2020-05-10T03:49:03,42.805,6.029,-0.006,0.021,-0.031,103.0,107.0,102.0,13.3,1505.4,326.4,-0.7,1.8,2470.176,13.34,0.021,344.1
2020-05-10T03:52:03,42.805,6.029,-0.017,0.012,-0.041,102.0,107.0,101.0,13.4,1505.4,325.1,-0.7,1.8,2470.258,13.34,0.02,305.2
2020-05-10T03:55:03,42.805,6.029,-0.028,0.018,-0.028,105.0,106.0,101.0,13.4,1505.4,325.8,-0.7,1.9,2470.193,13.34,0.033,302.7
2020-05-10T03:58:03,42.805,6.029,-0.01,0.032,-0.028,103.0,105.0,103.0,13.3,1505.4,325.2,-0.7,1.8,2470.217,13.34,0.033,342.6
2020-05-10T04:04:03,42.805,6.029,0.005,0.015,-0.061,102.0,106.0,101.0,13.4,1505.3,328.2,-0.7,1.8,2470.269,13.32,0.015,18.4
2020-05-10T04:07:03,42.805,6.029,-0.018,0.04,-0.003,104.0,106.0,102.0,13.4,1505.3,323.8,-0.7,1.9,2470.206,13.33,0.043,335.8
2020-05-10T04:10:03,42.805,6.029,-0.001,0.011,-0.038,105.0,106.0,100.0,13.3,1505.3,324.0,-0.7,1.8,2470.215,13.33,0.011,354.8
2020-05-10T04:13:03,42.805,6.029,-0.016,0.004,0.008,105.0,106.0,101.0,13.4,1505.4,323.0,-0.7,1.8,2470.254,13.34,0.016,284.0
2020-05-10T04:16:03,42.805,6.029,-0.023,0.019,-0.068,103.0,107.0,102.0,13.3,1505.4,325.8,-0.7,1.9,2470.273,13.34,0.029,309.6
2020-05-10T04:19:03,42.805,6.029,-0.008,0.015,-0.045,103.0,106.0,102.0,13.3,1505.4,327.7,-0.7,1.8,2470.215,13.34,0.017,331.9
2020-05-10T04:22:03,42.805,6.029,-0.011,0.018,-0.028,105.0,105.0,101.0,13.4,1505.4,324.2,-0.7,1.8,2470.231,13.34,0.021,328.6
2020-05-10T04:25:03,42.805,6.029,0.006,0.02,-0.034,103.0,107.0,103.0,13.3,1505.4,325.6,-0.7,1.8,2470.206,13.34,0.02,16.7
2020-05-10T04:28:03,42.805,6.029,-0.013,0.01,-0.03,107.0,104.0,101.0,13.4,1505.4,328.1,-0.7,1.8,2470.227,13.34,0.016,307.6
2020-05-10T04:31:03,42.805,6.029,-0.006,0.023,-0.019,102.0,106.0,101.0,13.4,1505.4,327.2,-0.7,1.9,2470.219,13.34,0.023,345.4
2020-05-10T04:34:03,42.805,6.029,-0.018,0.014,-0.048,103.0,108.0,102.0,13.4,1505.4,326.3,-0.7,1.8,2470.22,13.34,0.022,307.9
2020-05-10T04:37:03,42.805,6.029,0.001,0.039,-0.022,103.0,107.0,101.0,13.4,1505.4,327.5,-0.7,1.8,2470.232,13.34,0.039,1.5
2020-05-10T04:40:03,42.805,6.029,0.015,0.015,-0.027,103.0,106.0,101.0,13.4,1505.4,327.2,-0.7,1.8,2470.248,13.34,0.021,45.0
2020-05-10T04:43:03,42.805,6.029,0.016,0.017,0.009,103.0,107.0,102.0,13.4,1505.4,328.1,-0.7,1.8,2470.211,13.34,0.023,43.3
2020-05-10T04:46:03,42.805,6.029,-0.025,0.019,-0.04,102.0,106.0,101.0,13.3,1505.4,324.1,-0.7,1.8,2470.215,13.34,0.031,307.2
2020-05-10T04:49:03,42.805,6.029,0.012,0.02,-0.003,104.0,106.0,101.0,13.3,1505.4,326.9,-0.7,1.8,2470.254,13.34,0.023,31.0
2020-05-10T04:52:03,42.805,6.029,0.006,0.027,-0.003,104.0,104.0,102.0,13.4,1505.4,327.9,-0.7,1.8,2470.209,13.34,0.027,12.5
2020-05-10T04:55:03,42.805,6.029,-0.02,0.029,-0.05,104.0,106.0,102.0,13.4,1505.4,323.1,-0.7,1.8,2470.246,13.34,0.035,325.4
2020-05-10T04:58:03,42.805,6.029,-0.007,0.013,-0.042,102.0,106.0,101.0,13.4,1505.4,325.7,-0.7,1.8,2470.249,13.34,0.014,331.7
2020-05-10T05:04:03,42.805,6.029,0.004,0.031,-0.013,103.0,106.0,102.0,13.3,1505.3,324.8,-0.7,1.8,2470.277,13.32,0.031,7.3
2020-05-10T05:07:03,42.805,6.029,0.001,0.021,-0.042,103.0,106.0,101.0,13.4,1505.3,324.6,-0.7,1.9,2470.264,13.33,0.021,2.7
2020-05-10T05:10:03,42.805,6.029,0.003,0.027,-0.026,105.0,107.0,102.0,13.4,1505.3,325.4,-0.7,1.8,2470.262,13.33,0.027,6.3
2020-05-10T05:13:03,42.805,6.029,0.0,0.013,-0.021,102.0,105.0,103.0,13.4,1505.4,324.9,-0.7,1.9,2470.27,13.34,0.013,0.0
2020-05-10T05:16:03,42.805,6.029,0.001,0.02,-0.036,105.0,106.0,103.0,13.3,1505.4,324.5,-0.7,1.8,2470.26,13.34,0.02,2.9
2020-05-10T05:19:03,42.805,6.029,-0.011,0.026,-0.03,103.0,107.0,102.0,13.4,1505.4,326.6,-0.7,1.8,2470.271,13.34,0.028,337.1
2020-05-10T05:22:03,42.805,6.029,0.002,0.02,0.018,103.0,107.0,102.0,13.4,1505.4,325.4,-0.7,1.8,2470.246,13.34,0.02,5.7
2020-05-10T05:25:03,42.805,6.029,0.0,0.028,0.008,104.0,106.0,102.0,13.4,1505.4,323.3,-0.7,1.8,2470.229,13.34,0.028,0.0
2020-05-10T05:28:03,42.805,6.029,0.012,0.024,0.002,102.0,108.0,101.0,13.3,1505.4,326.3,-0.7,1.8,2470.267,13.34,0.026,26.6
2020-05-10T05:31:03,42.805,6.029,0.033,0.016,0.018,102.0,108.0,103.0,13.4,1505.4,326.8,-0.7,1.8,2470.264,13.34,0.036,64.1
2020-05-10T05:34:03,42.805,6.029,0.007,0.026,0.014,104.0,106.0,102.0,13.4,1505.4,327.5,-0.7,1.8,2470.244,13.34,0.026,15.1
2020-05-10T05:37:03,42.805,6.029,-0.013,0.033,0.006,103.0,106.0,101.0,13.3,1505.4,327.5,-0.7,1.8,2470.201,13.34,0.035,338.5
2020-05-10T05:40:03,42.805,6.029,-0.024,0.0,-0.026,102.0,107.0,102.0,13.4,1505.4,327.7,-0.7,1.8,2470.282,13.34,0.024,270.0
2020-05-10T05:43:03,42.805,6.029,-0.004,0.035,-0.014,103.0,107.0,101.0,13.4,1505.4,328.1,-0.7,1.8,2470.259,13.34,0.035,353.5
2020-05-10T05:46:03,42.805,6.029,0.014,0.024,-0.034,104.0,108.0,102.0,13.3,1505.4,322.8,-0.7,1.8,2470.243,13.34,0.027,30.3
2020-05-10T05:49:03,42.805,6.029,0.009,0.018,-0.009,104.0,107.0,102.0,13.4,1505.4,324.2,-0.7,1.9,2470.242,13.34,0.02,26.6
2020-05-10T05:52:03,42.805,6.029,0.02,0.01,-0.002,104.0,107.0,102.0,13.3,1505.4,323.4,-0.7,1.8,2470.249,13.34,0.022,63.4
2020-05-10T05:55:03,42.805,6.029,0.013,0.024,-0.01,103.0,107.0,102.0,13.4,1505.4,326.0,-0.7,1.8,2470.283,13.34,0.027,28.4
2020-05-10T05:58:03,42.805,6.029,-0.008,0.033,-0.03,104.0,107.0,100.0,13.4,1505.4,323.5,-0.7,1.8,2470.23,13.34,0.033,346.4
2020-05-10T06:04:03,42.805,6.029,-0.009,0.01,-0.041,103.0,107.0,102.0,13.4,1505.3,324.2,-0.7,1.8,2470.363,13.32,0.013,318.0
2020-05-10T06:07:03,42.805,6.029,-0.003,0.028,0.042,104.0,107.0,101.0,13.4,1505.3,326.7,-0.7,1.8,2470.289,13.33,0.028,353.9
2020-05-10T06:10:03,42.805,6.029,-0.002,0.025,-0.025,107.0,106.0,101.0,13.3,1505.3,326.4,-0.7,1.9,2470.296,13.33,0.025,355.4
2020-05-10T06:13:03,42.805,6.029,0.002,0.055,0.015,104.0,107.0,102.0,13.3,1505.3,327.9,-0.7,1.9,2470.289,13.33,0.055,2.1
2020-05-10T06:16:03,42.805,6.029,-0.009,0.014,-0.026,106.0,108.0,102.0,13.4,1505.4,326.5,-0.7,1.8,2470.287,13.34,0.016,327.3
2020-05-10T06:19:03,42.805,6.029,-0.038,0.019,-0.032,105.0,108.0,102.0,13.4,1505.4,327.3,-0.7,1.8,2470.275,13.34,0.042,296.6
2020-05-10T06:22:03,42.805,6.029,0.003,0.016,-0.005,103.0,107.0,102.0,13.4,1505.4,326.3,-0.7,1.8,2470.263,13.34,0.016,10.6
2020-05-10T06:25:03,42.805,6.029,-0.007,0.026,-0.053,104.0,107.0,101.0,13.4,1505.4,327.7,-0.7,1.8,2470.268,13.34,0.026,344.9
2020-05-10T06:28:03,42.805,6.029,-0.023,0.023,-0.055,104.0,106.0,102.0,13.4,1505.4,326.9,-0.7,1.9,2470.329,13.34,0.032,315.0
2020-05-10T06:31:03,42.805,6.029,-0.011,0.04,-0.011,104.0,106.0,101.0,13.4,1505.4,328.1,-0.7,1.8,2470.311,13.34,0.041,344.6
2020-05-10T06:34:03,42.805,6.029,-0.038,0.032,-0.057,104.0,108.0,101.0,13.4,1505.4,324.7,-0.7,1.8,2470.302,13.34,0.049,310.1
2020-05-10T06:37:03,42.805,6.029,-0.019,0.017,-0.024,104.0,106.0,102.0,13.4,1505.4,325.0,-0.7,1.9,2470.293,13.34,0.025,311.8
2020-05-10T06:40:03,42.805,6.029,0.001,0.008,0.007,104.0,106.0,101.0,13.4,1505.4,327.2,-0.7,1.8,2470.303,13.34,0.008,7.1
2020-05-10T06:43:03,42.805,6.029,-0.005,0.001,-0.009,104.0,107.0,102.0,13.3,1505.4,322.9,-0.7,1.9,2470.318,13.34,0.005,281.3
2020-05-10T06:46:03,42.805,6.029,-0.034,0.001,-0.05,105.0,107.0,102.0,13.4,1505.4,322.8,-0.7,1.8,2470.304,13.34,0.034,271.7
2020-05-10T06:49:03,42.805,6.029,-0.016,0.022,-0.024,104.0,107.0,101.0,13.4,1505.4,324.8,-0.7,1.8,2470.316,13.34,0.027,324.0
2020-05-10T06:52:03,42.805,6.029,0.001,0.01,-0.007,104.0,107.0,101.0,13.4,1505.4,326.2,-0.7,1.8,2470.287,13.34,0.01,5.7
2020-05-10T06:55:03,42.805,6.029,-0.012,0.009,-0.041,104.0,106.0,103.0,13.4,1505.4,327.6,-0.7,1.8,2470.326,13.34,0.015,306.9
2020-05-10T06:58:03,42.805,6.029,0.003,0.021,-0.043,105.0,108.0,102.0,13.3,1505.4,325.6,-0.7,1.8,2470.318,13.34,0.021,8.1
2020-05-10T07:04:03,42.805,6.029,-0.027,0.037,-0.029,106.0,107.0,102.0,13.4,1505.3,325.1,-0.8,1.8,2470.346,13.32,0.045,323.9
2020-05-10T07:07:03,42.805,6.029,0.006,0.011,-0.034,105.0,107.0,101.0,13.3,1505.3,326.3,-0.7,1.8,2470.345,13.33,0.012,28.6
2020-05-10T07:10:03,42.805,6.029,-0.023,0.022,-0.022,104.0,106.0,101.0,13.3,1505.3,325.0,-0.7,1.9,2470.304,13.33,0.031,313.7
2020-05-10T07:13:03,42.805,6.029,-0.018,0.012,-0.032,104.0,108.0,101.0,13.3,1505.3,324.4,-0.7,1.8,2470.371,13.33,0.021,303.7
2020-05-10T07:16:03,42.805,6.029,-0.004,0.049,-0.038,104.0,107.0,101.0,13.4,1505.4,326.6,-0.7,1.8,2470.355,13.34,0.049,355.3
2020-05-10T07:19:03,42.805,6.029,0.002,0.03,-0.009,103.0,108.0,103.0,13.4,1505.4,326.5,-0.7,1.8,2470.336,13.34,0.03,3.8
2020-05-10T07:22:03,42.805,6.029,0.003,0.032,-0.001,106.0,107.0,102.0,13.4,1505.4,325.7,-0.7,1.8,2470.365,13.34,0.032,5.4
2020-05-10T07:25:03,42.805,6.029,-0.028,0.025,-0.036,102.0,108.0,101.0,13.4,1505.4,327.2,-0.7,1.8,2470.358,13.34,0.037,311.8
2020-05-10T07:28:03,42.805,6.029,0.001,0.02,-0.018,104.0,107.0,103.0,13.4,1505.4,327.0,-0.7,1.8,2470.305,13.34,0.02,2.9
2020-05-10T07:31:03,42.805,6.029,0.013,0.02,-0.013,104.0,107.0,102.0,13.4,1505.4,326.5,-0.7,1.8,2470.326,13.34,0.023,33.0
2020-05-10T07:34:03,42.805,6.029,-0.011,0.006,-0.015,104.0,107.0,101.0,13.3,1505.4,325.9,-0.7,1.8,2470.308,13.34,0.012,298.6
2020-05-10T07:37:03,42.805,6.029,-0.001,0.04,-0.038,104.0,107.0,101.0,13.4,1505.4,328.5,-0.7,1.8,2470.341,13.34,0.04,358.6
2020-05-10T07:40:03,42.805,6.029,0.008,0.02,-0.006,104.0,107.0,101.0,13.4,1505.4,326.9,-0.7,1.8,2470.36,13.34,0.021,21.8
2020-05-10T07:43:03,42.805,6.029,0.001,0.002,-0.045,103.0,108.0,102.0,13.3,1505.4,326.6,-0.7,1.9,2470.358,13.34,0.002,26.6
2020-05-10T07:46:03,42.805,6.029,-0.004,0.024,-0.025,103.0,107.0,101.0,13.3,1505.4,326.5,-0.7,1.8,2470.349,13.34,0.024,350.5
2020-05-10T07:49:03,42.805,6.029,-0.011,0.014,-0.023,103.0,108.0,103.0,13.4,1505.4,328.4,-0.7,1.8,2470.339,13.34,0.017,321.8
2020-05-10T07:52:03,42.805,6.029,-0.001,0.001,0.006,105.0,107.0,102.0,13.3,1505.4,326.6,-0.7,1.8,2470.326,13.34,0.001,315.0
2020-05-10T07:55:03,42.805,6.029,-0.005,0.018,-0.034,105.0,107.0,101.0,13.4,1505.4,327.7,-0.7,1.8,2470.381,13.34,0.018,344.5
2020-05-10T07:58:03,42.805,6.029,0.015,0.039,-0.001,105.0,107.0,102.0,13.3,1505.4,327.0,-0.7,1.8,2470.334,13.34,0.041,21.0
2020-05-10T08:04:03,42.805,6.029,-0.007,0.012,-0.018,103.0,108.0,101.0,13.4,1505.3,323.0,-0.7,1.8,2470.411,13.32,0.013,329.7
2020-05-10T08:07:03,42.805,6.029,-0.009,0.009,-0.02,104.0,107.0,102.0,13.4,1505.3,322.8,-0.7,1.8,2470.394,13.33,0.012,315.0
2020-05-10T08:10:03,42.805,6.029,-0.01,0.02,-0.024,105.0,108.0,102.0,13.4,1505.3,323.5,-0.7,1.8,2470.368,13.33,0.022,333.4
2020-05-10T08:13:03,42.805,6.029,-0.02,0.015,-0.068,104.0,106.0,103.0,13.4,1505.3,323.5,-0.7,1.8,2470.368,13.33,0.025,306.9
2020-05-10T08:16:03,42.805,6.029,0.009,0.026,-0.012,103.0,107.0,103.0,13.3,1505.3,327.6,-0.7,1.8,2470.366,13.33,0.027,19.1
2020-05-10T08:19:03,42.805,6.029,0.006,0.016,0.014,104.0,106.0,101.0,13.4,1505.3,327.1,-0.7,1.8,2470.344,13.33,0.017,20.6
2020-05-10T08:22:03,42.805,6.029,-0.008,0.023,-0.038,103.0,108.0,103.0,13.4,1505.4,326.9,-0.7,1.8,2470.367,13.34,0.024,340.8
2020-05-10T08:25:03,42.805,6.029,-0.015,0.027,-0.002,105.0,108.0,102.0,13.3,1505.4,323.1,-0.7,1.8,2470.386,13.34,0.03,330.9
2020-05-10T08:28:03,42.805,6.029,0.015,0.026,-0.001,105.0,107.0,102.0,13.4,1505.4,324.6,-0.7,1.8,2470.394,13.34,0.03,30.0
2020-05-10T08:31:03,42.805,6.029,0.001,0.038,0.0,102.0,108.0,102.0,13.4,1505.4,323.2,-0.7,1.8,2470.365,13.34,0.038,1.5
2020-05-10T08:34:03,42.805,6.029,-0.001,0.016,-0.009,104.0,107.0,102.0,13.3,1505.4,323.0,-0.7,1.8,2470.377,13.34,0.016,356.4
2020-05-10T08:37:03,42.805,6.029,-0.007,0.006,-0.043,106.0,107.0,101.0,13.4,1505.4,327.4,-0.7,1.8,2470.342,13.34,0.009,310.6
2020-05-10T08:40:03,42.805,6.029,0.001,0.031,-0.057,104.0,106.0,102.0,13.3,1505.4,325.2,-0.7,1.8,2470.385,13.34,0.031,1.8
2020-05-10T08:43:03,42.805,6.029,-0.023,0.031,-0.036,103.0,107.0,102.0,13.3,1505.4,325.3,-0.7,1.8,2470.352,13.34,0.038,323.4
2020-05-10T08:46:03,42.805,6.029,-0.01,0.014,-0.036,103.0,106.0,101.0,13.3,1505.4,325.0,-0.7,1.9,2470.375,13.34,0.017,324.5
2020-05-10T08:49:03,42.805,6.029,0.001,0.018,-0.014,103.0,106.0,103.0,13.4,1505.4,324.0,-0.7,1.8,2470.435,13.34,0.018,3.2
2020-05-10T08:52:03,42.805,6.029,-0.021,0.032,-0.026,104.0,105.0,102.0,13.4,1505.4,325.5,-0.7,1.8,2470.371,13.34,0.038,326.7
2020-05-10T08:55:03,42.805,6.029,0.005,0.016,-0.006,104.0,107.0,101.0,13.4,1505.4,326.7,-0.7,1.8,2470.318,13.34,0.016,17.4
2020-05-10T08:58:03,42.805,6.029,0.001,0.029,-0.009,103.0,107.0,102.0,13.4,1505.4,323.4,-0.7,1.8,2470.333,13.34,0.029,2.0
2020-05-10T09:04:03,42.805,6.029,0.01,0.017,-0.012,104.0,106.0,102.0,13.3,1505.3,326.6,-0.7,1.9,2470.436,13.32,0.019,30.5
2020-05-10T09:07:03,42.805,6.029,-0.011,0.039,-0.006,105.0,108.0,102.0,13.4,1505.3,325.3,-0.7,1.8,2470.417,13.33,0.04,344.3
2020-05-10T09:10:03,42.805,6.029,-0.011,0.009,-0.011,103.0,107.0,101.0,13.4,1505.3,324.6,-0.8,1.8,2470.388,13.33,0.014,309.3
2020-05-10T09:13:03,42.805,6.029,-0.002,0.038,-0.013,106.0,106.0,102.0,13.4,1505.3,323.1,-0.7,1.8,2470.322,13.33,0.038,357.0
2020-05-10T09:16:03,42.805,6.029,-0.009,0.026,-0.029,104.0,107.0,101.0,13.4,1505.3,325.2,-0.7,1.9,2470.369,13.33,0.027,340.9
2020-05-10T09:19:03,42.805,6.029,-0.01,0.043,-0.017,105.0,107.0,102.0,13.3,1505.4,325.3,-0.7,1.8,2470.429,13.34,0.044,346.9
2020-05-10T09:22:03,42.805,6.029,0.004,0.033,-0.045,104.0,108.0,101.0,13.4,1505.4,328.2,-0.7,1.8,2470.388,13.34,0.033,6.9
2020-05-10T09:25:03,42.805,6.029,-0.018,0.015,-0.026,104.0,108.0,101.0,13.4,1505.4,324.1,-0.7,1.8,2470.344,13.34,0.023,309.8
2020-05-10T09:28:03,42.805,6.029,-0.014,0.015,-0.034,102.0,107.0,102.0,13.4,1505.4,325.5,-0.7,1.8,2470.377,13.34,0.02,317.0
2020-05-10T09:31:03,42.805,6.029,-0.009,0.008,-0.058,104.0,107.0,103.0,13.4,1505.4,328.4,-0.7,1.8,2470.364,13.34,0.012,311.6
2020-05-10T09:34:03,42.805,6.029,-0.001,0.03,-0.038,104.0,107.0,102.0,13.3,1505.4,324.8,-0.7,1.8,2470.433,13.34,0.03,358.1
2020-05-10T09:37:03,42.805,6.029,0.012,0.014,-0.022,103.0,107.0,102.0,13.4,1505.4,323.3,-0.7,1.8,2470.379,13.34,0.018,40.6
2020-05-10T09:40:03,42.805,6.029,0.001,0.029,-0.034,104.0,108.0,101.0,13.4,1505.4,325.2,-0.7,1.8,2470.405,13.34,0.029,2.0
2020-05-10T09:43:03,42.805,6.029,0.013,0.013,-0.022,105.0,107.0,102.0,13.3,1505.4,328.3,-0.7,1.8,2470.364,13.34,0.018,45.0
2020-05-10T09:46:03,42.805,6.029,-0.009,0.03,-0.02,105.0,107.0,101.0,13.3,1505.4,324.6,-0.7,1.8,2470.351,13.34,0.031,343.3
2020-05-10T09:49:03,42.805,6.029,0.003,0.041,-0.031,105.0,106.0,102.0,13.4,1505.4,323.3,-0.7,1.9,2470.354,13.34,0.041,4.2
2020-05-10T09:52:03,42.805,6.029,0.013,0.022,-0.006,104.0,107.0,101.0,13.4,1505.4,327.2,-0.7,1.8,2470.38,13.34,0.025,30.6
2020-05-10T09:55:03,42.805,6.029,-0.009,0.019,-0.018,104.0,106.0,102.0,13.3,1505.4,327.0,-0.7,1.8,2470.336,13.34,0.021,334.7
2020-05-10T09:58:03,42.805,6.029,-0.019,0.023,-0.035,105.0,107.0,101.0,13.4,1505.4,325.7,-0.7,1.8,2470.343,13.34,0.029,320.4